Theta_e
320 320 320 320 321 321 322 322 323 323 323 323 323 324 325 326 326 323 310 320 327 355 360 350 344 340 342 336 339 337 325 318 319 321 326 335 331 337 341 337 339 342 340 345 350
319 319 319 319 320 320 321 321 322 322 322 322 323 324 325 326 320 315 333 350 356 362 347 342 337 337 334 333 335 329 323 321 327 328 329 333 332 335 334 336 336 338 345 349 348
319 319 319 319 319 320 321 321 321 321 321 322 322 324 325 326 313 312 345 361 364 356 346 343 339 338 330 334 332 330 324 329 329 332 334 333 333 337 333 331 336 336 339 343 343
318 318 318 318 319 319 320 320 320 320 320 321 322 324 326 322 310 331 354 363 365 349 345 344 340 331 329 327 333 326 331 331 331 336 334 332 336 333 334 333 340 343 344 344 342
318 318 318 318 318 319 319 319 319 319 320 321 322 324 318 307 308 331 358 365 353 347 342 340 333 333 327 330 332 328 330 331 332 335 336 337 333 331 333 341 344 344 344 344 344
318 318 317 317 318 318 318 318 318 318 319 321 322 325 312 303 317 346 346 354 346 345 343 340 334 337 333 329 328 330 331 329 333 334 336 332 332 332 335 343 342 342 343 344 345
317 317 317 317 317 317 317 317 317 317 319 321 323 324 309 309 317 347 350 347 347 345 340 343 339 337 335 330 334 331 324 327 328 332 331 333 327 328 337 342 340 341 342 344 345
317 317 317 317 317 316 316 315 316 318 320 321 324 320 307 313 328 342 338 338 347 341 341 345 344 338 335 336 330 325 325 318 325 329 329 330 319 330 339 338 337 340 341 343 345
316 316 316 316 316 316 314 314 319 322 325 325 317 310 307 322 316 332 331 327 338 341 337 344 341 333 333 327 322 323 315 317 320 327 326 325 321 326 338 336 335 338 340 342 344
316 316 316 315 315 314 313 313 321 324 325 326 322 307 310 310 314 325 328 332 328 336 327 336 334 331 327 325 314 316 316 317 316 323 324 323 322 325 335 335 334 337 339 339 342
316 316 316 315 315 313 311 312 312 308 315 305 305 307 311 315 315 316 323 329 328 323 320 331 324 321 323 325 324 321 319 318 321 324 321 321 322 324 330 334 333 335 337 339 338
316 315 315 314 313 311 309 302 308 307 306 310 310 308 311 313 309 313 324 324 319 314 326 324 318 325 327 324 322 321 319 319 322 323 322 321 322 326 328 331 333 334 335 337 340
315 315 314 313 312 308 305 304 310 310 304 306 309 310 311 312 308 310 322 324 319 318 321 318 320 326 324 322 320 320 318 318 318 322 324 322 320 323 327 329 332 335 337 338 339
315 314 312 310 307 305 304 311 311 310 302 304 307 311 311 312 308 314 324 325 322 314 321 319 325 322 321 319 320 315 321 321 320 318 312 322 310 320 323 325 328 330 333 336 338
315 314 310 309 305 304 307 310 309 309 292 303 307 315 310 310 310 310 320 316 319 320 320 316 319 320 319 320 322 318 323 321 321 319 316 315 313 316 322 322 326 329 331 332 335
314 312 310 307 306 307 309 309 308 300 291 302 308 307 307 308 307 308 312 314 317 320 321 319 323 323 322 323 323 324 320 319 318 315 308 311 313 313 317 321 323 329 332 333 335
311 309 308 309 305 308 309 308 301 294 303 303 305 306 307 306 305 307 307 306 306 303 307 314 318 321 324 319 323 321 317 309 307 308 306 313 310 314 321 323 325 326 331 334 335
308 307 308 308 310 310 308 305 295 298 300 305 304 304 304 306 305 303 305 303 306 306 304 302 304 317 322 320 317 317 316 309 300 303 305 312 309 314 324 327 329 329 331 334 334
307 305 306 309 310 308 305 298 299 300 304 302 303 302 302 304 305 304 305 302 306 308 301 302 305 316 320 322 321 315 313 318 310 309 307 310 315 320 324 324 326 327 329 332 334
305 304 308 309 310 306 304 298 301 303 305 303 300 303 301 303 302 304 302 306 305 310 311 311 304 314 317 321 319 318 320 310 311 302 300 307 310 312 319 321 324 327 328 331 335
303 306 307 309 307 306 299 301 301 305 306 302 300 300 302 302 304 303 303 304 308 306 311 311 307 305 313 314 314 315 313 313 313 311 304 301 307 321 321 322 322 324 330 330 333
301 304 308 307 302 300 300 301 301 304 305 304 304 303 303 302 303 303 303 307 309 308 305 310 308 304 306 309 313 318 315 315 308 306 309 307 307 320 321 322 325 326 328 331 333
301 304 309 306 298 299 300 302 303 303 304 304 303 304 304 303 302 303 304 308 307 308 307 307 304 299 300 305 308 309 314 316 313 311 308 304 306 319 322 322 326 327 330 334 334
304 303 305 305 301 300 301 301 302 305 305 305 305 304 304 303 305 304 306 309 308 308 320 313 305 302 298 302 306 305 307 312 312 307 306 307 309 316 319 319 321 324 330 333 334
304 302 301 299 302 301 302 303 302 301 304 305 303 304 303 302 304 305 307 308 309 311 308 309 303 305 305 306 306 306 305 306 307 309 305 308 309 314 316 318 319 322 326 330 331
303 302 303 301 300 300 298 300 301 302 303 303 303 303 304 303 304 305 306 307 308 309 307 305 304 303 304 304 305 304 307 308 308 309 310 310 310 317 319 322 324 326 327 329 332
304 305 301 296 299 299 301 302 302 302 304 305 305 304 304 303 305 306 307 307 308 308 306 306 303 302 301 302 303 299 304 306 309 312 311 307 311 318 317 321 323 326 328 330 332
Wind_Speed
14 14 14 14 14 14 15 14 14 13 13 13 12 11 12 12 12 3 6 3 6 16 9 8 4 3 1 3 2 1 2 3 2 4 5 10 5 5 4 10 4 2 8 10 19
14 14 14 14 14 14 15 15 14 13 13 14 13 12 12 11 3 7 2 10 18 17 10 10 7 5 2 2 2 1 3 2 2 3 6 12 11 7 5 9 4 5 10 19 18
14 14 14 15 14 15 15 15 15 14 12 13 14 13 11 8 3 1 6 15 15 11 9 4 8 1 2 1 2 0 3 2 4 1 11 13 7 4 5 7 7 10 18 18 16
14 14 14 15 16 15 15 15 15 14 13 12 14 13 14 2 3 4 10 17 14 9 10 9 5 2 2 2 1 1 3 3 3 5 11 11 6 4 6 4 2 16 19 19 19
15 15 15 15 15 16 16 15 15 15 14 11 12 12 3 2 5 5 11 15 12 8 7 5 3 3 3 2 1 1 3 5 6 10 9 8 3 1 2 5 12 18 18 16 14
15 15 15 16 17 17 17 17 16 15 13 11 9 10 1 4 4 5 14 16 10 7 7 3 0 2 4 2 1 4 6 3 8 11 9 8 2 2 3 10 13 17 18 16 17
15 15 16 16 18 19 19 19 17 15 12 8 5 2 1 8 4 5 12 9 11 3 5 2 1 1 3 2 3 4 5 7 7 11 7 8 5 10 8 12 13 15 16 15 16
15 15 16 16 18 20 21 21 18 12 6 3 3 2 6 0 2 7 7 8 12 2 1 1 2 1 2 3 1 1 2 3 3 10 4 11 6 12 12 15 14 15 14 14 16
15 16 16 16 17 18 20 20 14 2 3 6 3 2 5 1 4 6 6 8 11 4 2 5 2 2 1 1 2 4 2 1 1 3 6 10 6 6 14 16 15 15 15 15 14
15 16 16 16 15 16 19 15 5 2 1 3 1 3 3 3 3 7 4 14 6 7 2 3 2 2 2 0 3 2 2 0 3 1 5 8 15 5 14 17 18 16 16 14 16
16 16 16 15 16 15 10 3 3 2 1 5 2 2 1 2 4 3 6 9 7 8 7 3 6 8 5 4 1 2 5 8 7 4 4 8 11 12 11 17 18 17 18 17 15
16 16 16 17 16 9 3 4 1 3 6 10 9 6 5 2 3 6 10 9 7 10 8 5 10 6 2 3 3 4 8 11 8 1 5 5 12 13 12 20 23 21 20 20 17
16 16 16 17 16 2 2 4 3 3 3 4 5 6 5 9 4 12 18 8 9 13 14 9 1 10 7 3 4 8 10 9 7 1 1 7 9 8 12 17 15 21 21 20 20
16 16 16 21 2 2 4 3 5 4 3 4 4 4 7 7 5 7 17 8 5 15 15 9 9 4 6 5 6 7 4 8 5 4 4 2 7 11 5 15 18 21 21 22 21
17 15 15 8 7 4 3 4 2 3 4 6 4 1 2 10 9 8 9 7 12 11 8 9 9 12 12 11 10 2 2 2 3 2 4 1 5 5 4 9 15 18 22 20 20
18 17 13 1 3 6 4 4 3 4 6 5 5 7 8 5 4 6 13 3 4 7 6 9 3 5 9 5 6 9 2 4 3 1 5 1 3 8 5 5 5 6 15 20 18
19 18 7 3 2 3 2 4 4 5 2 6 4 7 12 10 6 8 16 18 13 12 10 4 8 3 5 8 6 4 1 2 2 2 3 1 5 12 12 13 11 10 9 11 15
25 19 5 10 4 6 2 3 6 2 4 2 4 6 9 11 7 5 16 18 7 10 9 11 11 9 6 6 2 3 2 3 3 3 7 2 7 5 5 8 7 8 9 6 12
20 1 2 3 11 2 3 6 4 5 0 1 4 5 7 8 7 8 14 21 19 16 13 11 12 2 9 5 6 6 7 1 6 2 5 4 6 15 6 8 8 9 7 7 11
4 3 1 3 12 3 4 5 3 3 2 1 2 4 11 14 12 10 13 11 11 16 16 6 8 7 7 7 5 7 10 4 3 4 5 4 6 9 10 11 7 7 11 9 10
2 2 5 2 6 3 9 6 4 5 4 2 1 1 2 8 9 14 14 3 17 13 10 9 6 4 7 10 10 6 5 2 2 4 4 6 7 5 9 9 10 9 11 11 13
3 1 5 3 4 1 7 6 3 1 3 2 2 3 2 5 7 9 12 10 12 18 16 13 7 11 9 3 5 11 13 13 8 7 2 4 12 6 14 10 8 10 10 9 13
3 1 3 4 4 4 2 5 3 4 3 1 2 3 1 1 3 6 6 2 10 14 18 12 11 9 7 9 4 8 10 10 4 1 11 7 11 3 8 13 9 11 9 8 10
2 3 3 2 1 2 8 4 7 2 3 2 2 2 2 3 0 7 7 4 5 7 3 13 10 17 15 13 9 14 14 13 15 10 13 13 21 20 21 16 15 15 10 7 7
2 2 3 4 5 2 1 5 6 4 2 2 2 5 3 4 4 3 3 4 4 4 4 12 12 17 21 21 15 17 20 23 19 23 14 21 16 19 17 17 17 11 9 9 10
3 2 1 0 1 4 1 3 5 3 3 4 4 3 7 4 1 5 3 1 2 4 4 4 3 7 15 10 17 17 15 17 21 20 13 21 19 22 19 13 13 7 6 10 12
2 1 3 1 2 5 5 4 5 2 2 1 3 4 8 4 3 4 3 2 2 1 4 4 5 6 6 6 9 8 20 14 11 12 14 13 17 12 9 11 11 10 6 10 11
Wind_Direction
356 353 351 348 343 338 335 336 337 340 340 332 343 338 330 330 311 206 230 210 174 155 141 121 113 109 38 79 31 355 106 105 134 186 141 164 145 135 91 143 108 14 152 146 150
354 351 348 345 342 337 334 333 334 338 339 331 337 334 330 336 297 251 232 142 139 149 142 153 148 167 92 73 68 354 107 66 300 218 174 174 162 157 160 156 103 89 110 133 150
351 349 347 342 341 336 332 330 332 335 339 332 329 332 326 320 269 276 132 148 151 155 145 142 144 140 62 342 64 64 77 316 356 155 170 165 161 143 169 211 183 171 149 150 161
349 348 345 342 339 333 330 328 329 331 333 332 325 330 318 238 167 52 120 149 160 168 149 147 158 130 61 52 58 134 296 297 320 150 150 168 145 173 193 343 174 150 158 156 168
347 346 344 342 337 332 330 328 328 325 326 326 323 327 305 250 258 74 126 146 160 168 174 162 147 151 94 96 228 278 349 307 259 174 147 145 178 236 171 70 129 145 157 166 174
345 344 343 339 335 332 328 327 325 319 318 317 316 317 241 237 5 341 153 152 170 167 154 153 303 170 104 75 334 332 317 312 114 156 154 160 166 200 137 138 145 158 166 175 184
344 343 341 339 335 331 327 324 320 313 305 300 297 282 181 250 348 109 149 145 168 163 161 190 185 346 137 160 343 294 111 114 127 169 165 146 176 221 160 166 165 178 178 183 189
342 341 340 339 334 330 325 324 317 304 285 251 230 206 251 207 51 143 153 124 163 87 126 169 192 117 328 300 127 29 68 168 131 172 178 193 248 207 171 174 185 190 194 193 195
339 339 337 337 332 327 322 324 314 5 110 152 173 235 253 25 205 166 173 154 158 221 274 176 212 61 155 52 125 31 118 303 217 130 153 210 265 208 187 190 196 198 204 202 200
335 334 333 332 326 325 322 315 337 316 125 201 256 234 205 222 174 143 155 148 150 176 185 166 135 201 117 212 87 49 32 320 279 142 203 219 257 231 200 207 206 203 207 209 206
332 330 329 329 325 322 319 287 237 217 235 220 179 297 117 50 139 151 161 147 127 164 175 164 206 213 187 193 167 297 311 295 290 269 263 251 266 275 217 215 217 213 211 212 215
328 329 328 328 329 335 153 220 106 17 293 228 246 265 261 305 133 155 181 168 169 171 146 160 231 223 180 180 262 283 293 291 293 230 232 247 255 250 228 224 218 215 214 215 213
327 328 329 332 327 187 278 239 358 282 268 282 201 232 209 182 216 183 184 165 176 166 189 198 209 196 196 209 261 271 259 270 277 117 216 296 274 234 248 243 228 226 226 222 215
325 327 333 332 212 347 250 160 321 231 289 215 214 247 165 168 208 178 192 160 164 196 181 218 214 143 168 212 227 285 237 262 262 253 285 325 299 288 250 266 238 236 225 226 220
321 324 330 332 317 231 57 328 106 196 264 136 164 38 139 198 130 189 179 200 171 160 182 187 202 219 233 244 194 295 351 98 78 209 280 122 264 268 257 264 247 241 238 232 222
316 322 327 169 219 253 296 314 203 200 244 149 131 167 163 197 150 123 170 188 129 141 201 211 199 211 229 124 180 139 126 79 96 276 251 79 265 277 256 247 293 276 234 229 218
315 315 278 230 251 139 294 179 175 227 44 157 166 169 180 178 158 176 173 185 188 185 187 162 206 140 145 122 111 171 73 308 280 264 281 178 246 261 278 266 277 282 261 234 208
322 312 222 208 261 263 256 184 211 206 238 28 115 138 189 164 196 157 176 186 203 192 192 213 210 199 164 229 175 166 201 232 292 282 324 164 249 263 244 288 247 279 271 234 210
322 146 196 235 214 220 198 202 220 204 353 349 129 159 192 192 195 176 190 197 198 194 205 201 220 166 205 159 185 143 213 7 271 197 275 268 270 277 284 283 273 250 239 223 205
313 300 262 30 167 190 197 219 219 221 315 244 186 212 189 179 180 188 176 193 197 202 208 182 217 206 144 143 71 234 134 173 182 252 253 251 275 256 307 322 318 252 228 224 216
256 215 25 146 183 190 207 210 215 232 231 11 336 273 199 173 189 182 184 158 201 178 198 188 241 132 169 207 187 159 202 180 238 255 278 306 282 215 265 289 295 281 251 218 212
317 165 41 185 175 224 207 195 189 194 169 283 256 253 238 158 169 173 193 223 188 159 190 199 229 232 207 101 269 225 227 207 233 201 274 313 275 259 272 291 292 283 259 232 215
8 79 121 286 191 194 198 216 223 195 230 214 288 241 202 182 161 206 195 45 164 175 182 174 214 220 222 204 182 222 199 222 231 237 239 270 270 217 276 288 277 271 240 224 206
283 159 141 196 318 224 194 182 211 196 225 208 266 260 252 213 144 172 152 150 129 179 126 170 218 219 229 233 205 215 224 214 233 245 255 243 272 284 288 298 296 276 250 217 186
351 57 351 183 206 210 221 172 165 188 200 203 197 227 205 217 151 164 143 142 129 125 110 187 220 210 226 228 205 221 229 232 224 238 241 256 257 270 291 301 299 304 281 214 202
344 338 9 87 269 194 246 181 193 165 213 180 227 185 192 205 316 172 164 165 109 108 122 158 222 195 233 224 222 219 228 236 227 240 247 262 276 272 276 289 288 306 236 224 215
24 249 279 62 163 188 196 185 178 166 184 23 167 134 138 100 342 343 330 41 62 60 116 173 181 193 228 183 179 234 233 212 204 209 226 240 251 277 278 277 302 307 226 230 218